Location: Tom
(33.0437°N, 96.9452°W)
Time: 14:40:10
(UTC-06:00)

Envisat - Pass Details

Date: 31 January 2019
Orbit: 764 x 766 km, 98.2° (Epoch: 20 February)

Event Time Altitude Azimuth Distance (km) Brightness Sun altitude
Rises 20:10:13 0° 197° (SSW) 3,216 6.5 -27.7°
Reaches altitude 10° 20:12:54 10° 211° (SSW) 2,295 5.8 -28.2°
Maximum altitude 20:16:58 24° 264° (W) 1,539 5.2 -29.1°
Drops below altitude 10° 20:21:03 10° 318° (NW) 2,305 5.9 -29.9°
Sets 20:23:47 0° 332° (NNW) 3,235 6.6 -30.5°
